Alpe-dHuez, France 16 day weather forecast

Slopes altitude range 1100 m - 3330m

Number of lifts: 85 Pistes: 214km

In some cases the lift and piste totals shown are for the ski domain (e.g. Three Valleys) rather than individual resort (e.g. Courchevel)

Overview

The 16 day weather forecast is fully updated 4 times every day.

    • Thu 21 FEB 2019
    • Thu 21
    • -1C 5C
    • Fri 22 FEB 2019
    • Fri 22
    • -2C 5C
    • Sat 23 FEB 2019
    • Sat 23
    • 0C 7C
    • Sun 24 FEB 2019
    • Sun 24
    • -1C 6C
    • Mon 25 FEB 2019
    • Mon 25
    • 1C 8C
    • Tue 26 FEB 2019
    • Tue 26
    • 0C 9C
    • Wed 27 FEB 2019
    • Wed 27
    • 2C 11C
    • Thu 28 FEB 2019
    • Thu 28
    • 2C 9C
    • Fri 01 MAR 2019
    • Fri 01
    • 1C 8C
    • Sat 02 MAR 2019
    • Sat 02
    • 0C 7C
    • Sun 03 MAR 2019
    • Sun 03
    • 1C 4C
    • Mon 04 MAR 2019
    • Mon 04
    • 1C 10C
    • Tue 05 MAR 2019
    • Tue 05
    • 0C 3C
    • Wed 06 MAR 2019
    • Wed 06
    • -2C 2C
    • Thu 07 MAR 2019
    • Thu 07
    • -6C -2C
    • Fri 08 MAR 2019
    • Fri 08
    • -10C -2C

Date:

Time Type 0°C level Temp Chill Snow Cloud Speed Gust Dir Press
18:00 1900m 5°C 5_5 0cm 50% 5mph 6mph 1029mB
21:00 1501m -1°C -1_6 0cm 23% 6mph 7mph 1029mB
0:00 1480m -1°C -1_7 0cm 12% 7mph 8mph 1030mB
3:00 1455m -2°C -2_7 0cm 0% 7mph 9mph 1029mB
6:00 1430m -2°C -2_7 0cm 6% 7mph 8mph 1029mB
9:00 3460m -2°C -2_6 0cm 0% 6mph 10mph 1028mB
12:00 3406m 5°C 5_6 0cm 2% 6mph 9mph 1026mB
15:00 3257m 5°C 5_7 0cm 33% 7mph 11mph 1026mB
18:00 3092m 5°C 5_6 0cm 21% 6mph 6mph 1027mB
21:00 3158m 0°C 0_5 0cm 0% 5mph 6mph 1029mB
0:00 3004m 0°C 0_5 0cm 0% 5mph 6mph 1030mB
3:00 2735m 0°C 0_4 0cm 0% 4mph 5mph 1030mB
6:00 2537m 0°C 0_4 0cm 0% 4mph 5mph 1030mB
9:00 3348m 0°C 0_2 0cm 0% 2mph 2mph 1030mB
12:00 2669m 7°C 7_3 0cm 0% 3mph 3mph 1029mB
15:00 2508m 7°C 7_3 0cm 0% 3mph 4mph 1028mB
18:00 2575m 7°C 7_3 0cm 0% 3mph 3mph 1030mB
21:00 2942m 1°C 1_3 0cm 3% 3mph 4mph 1032mB
0:00 2932m 0°C 0_4 0cm 2% 4mph 4mph 1033mB
3:00 1615m 0°C 0_4 0cm 0% 4mph 4mph 1033mB
6:00 1553m -1°C -1_3 0cm 0% 3mph 4mph 1033mB
9:00 2987m -1°C -1_1 0cm 0% 1mph 2mph 1033mB
12:00 3207m 6°C 6_3 0cm 0% 3mph 3mph 1032mB
15:00 3207m 6°C 6_3 0cm 0% 3mph 4mph 1031mB
18:00 3068m 6°C 6_4 0cm 0% 4mph 5mph 1032mB
21:00 3217m 1°C 1_4 0cm 0% 4mph 5mph 1033mB
0:00 3247m 1°C 1_4 0cm 0% 4mph 4mph 1033mB
3:00 2896m 1°C 1_4 0cm 0% 4mph 4mph 1032mB
6:00 2838m 1°C 1_4 0cm 1% 4mph 5mph 1033mB
9:00 3024m 1°C 1_3 0cm 0% 3mph 4mph 1033mB
12:00 2641m 8°C 8_4 0cm 0% 4mph 7mph 1033mB
15:00 2570m 8°C 8_1 0cm 2% 1mph 2mph 1032mB
18:00 2368m 8°C 8_4 0cm 1% 4mph 5mph 1034mB
21:00 2347m 0°C 0_5 0cm 0% 5mph 6mph 1036mB
0:00 2461m 0°C 0_5 0cm 0% 5mph 6mph 1035mB
3:00 2550m 0°C 0_5 0cm 0% 5mph 6mph 1034mB
6:00 2665m 0°C 0_5 0cm 38% 5mph 6mph 1033mB
9:00 3045m 0°C 0_3 0cm 19% 3mph 4mph 1032mB
12:00 3130m 9°C 9_1 0cm 35% 1mph 2mph 1029mB
15:00 3204m 10°C 10_2 0cm 92% 2mph 3mph 1028mB
18:00 3256m 10°C 10_4 0cm 79% 4mph 4mph 1029mB
21:00 3293m 3°C 3_4 0cm 68% 4mph 5mph 1029mB
0:00 3292m 3°C 3_5 0cm 40% 5mph 5mph 1028mB
3:00 3291m 3°C 3_5 0cm 0% 5mph 5mph 1027mB
6:00 3324m 2°C 2_5 0cm 0% 5mph 5mph 1026mB
9:00 3370m 2°C 2_2 0cm 7% 2mph 3mph 1025mB
12:00 3347m 11°C 11_3 0cm 25% 3mph 2mph 1024mB
15:00 3310m 11°C 11_2 0cm 32% 2mph 3mph 1022mB
18:00 3303m 11°C 11_3 0cm 29% 3mph 3mph 1024mB
21:00 3247m 4°C 4_4 0cm 42% 4mph 5mph 1025mB
0:00 3159m 3°C 3_4 0cm 47% 4mph 4mph 1025mB
3:00 3037m 3°C 3_3 0cm 52% 3mph 4mph 1024mB
6:00 3000m 2°C 2_4 0cm 34% 4mph 4mph 1025mB
9:00 2982m 2°C 2_2 0cm 6% 2mph 3mph 1024mB
12:00 3043m 9°C 9_5 0cm 7% 5mph 6mph 1023mB
15:00 3010m 10°C 10_5 0cm 4% 5mph 7mph 1022mB
18:00 2948m 10°C 10_4 0cm 2% 4mph 5mph 1023mB
21:00 2935m 2°C 2_4 0cm 0% 4mph 5mph 1024mB
0:00 2786m 1°C 1_4 0cm 0% 4mph 5mph 1024mB
3:00 2748m 1°C 1_4 0cm 0% 4mph 5mph 1023mB
6:00 2650m 1°C 1_5 0cm 0% 5mph 5mph 1023mB
9:00 2759m 1°C 1_4 0cm 45% 4mph 6mph 1023mB
12:00 2722m 8°C 8_4 0cm 60% 4mph 4mph 1022mB
15:00 2576m 8°C 8_4 0cm 89% 4mph 5mph 1021mB
18:00 2533m 8°C 8_4 0cm 83% 4mph 4mph 1022mB
21:00 2488m 2°C 2_2 0cm 73% 2mph 3mph 1023mB
0:00 2352m 1°C 1_2 0cm 72% 2mph 3mph 1023mB
3:00 2162m 0°C 0_1 0cm 74% 1mph 2mph 1023mB
6:00 2156m 0°C 0_1 0cm 74% 1mph 2mph 1023mB
9:00 2217m 0°C 0_3 0cm 73% 3mph 4mph 1023mB
12:00 2275m 7°C 7_5 0cm 58% 5mph 6mph 1021mB
15:00 2281m 7°C 7_5 0cm 36% 5mph 7mph 1020mB
18:00 2164m 7°C 7_4 0cm 19% 4mph 5mph 1022mB
21:00 2096m 1°C 1_4 0cm 60% 4mph 5mph 1022mB
0:00 1947m 1°C 1_5 1cm 66% 5mph 8mph 1021mB
3:00 1848m 1°C 1_6 2cm 97% 6mph 10mph 1020mB
6:00 1879m 1°C 1_7 2cm 98% 7mph 12mph 1021mB
9:00 1825m 1°C 1_9 1cm 96% 9mph 15mph 1022mB
12:00 1942m 4°C 4_9 0cm 80% 9mph 14mph 1022mB
Morning 0mm 0 2801m 0°C 0_4 0cm 92% 4mph 5mph 1023mB
Afternoon 0mm 0 2682m 10°C 10_12 0cm 100% 12mph 19mph 1016mB
Morning 0.401042mm 2.1875 2089m 3°C 3_4 0cm 100% 4mph 8mph 1016mB
Afternoon 0.223958mm 0.4375 1736m 3°C 3_5 4cm 96% 5mph 8mph 1013mB
Morning 0.411458mm 0.75 1944m 1°C 1_8 0cm 100% 8mph 15mph 1010mB
Afternoon 0.4375mm 1.6875 1618m 2°C 2_6 14cm 82% 6mph 8mph 1012mB
Morning 0.0208333mm 0 1010m -4°C -4_8 1cm 63% 8mph 15mph 1015mB
Afternoon 0.0104167mm 0 1213m -2°C -2_14 0cm 68% 14mph 21mph 1019mB
Morning 0mm 0 269m -8°C -8_11 0cm 11% 11mph 22mph 1030mB
Afternoon 0mm 0 1239m -2°C -2_12 0cm 0% 12mph 17mph 1030mB
Morning 0mm 0 560m -7°C -7_5 0cm 0% 5mph 6mph 1035mB
Afternoon 0mm 0 1854m 4°C 4_4 0cm 63% 4mph 4mph 1030mB

16 day outlook at a glance

Forecast issued: 21/02/2019 17:43:01

Chat

Your comments and questions. In a resort? Let us know what it's like!


Characters left 250

For terms and conditions see Readers Comments on the Cookie and privacy policy page.